EN

Hourly Weather Neshukay

Today, 1 October, Thursday

Time Temperature Precipitation Wind Pressure Humidity
00:00 +18°C° 0 mm 2 mps 753 mmHg 74%
01:00 +17°C° 0.1 mm 2 mps 753 mmHg 75%
02:00 +17°C° 0.1 mm 2 mps 753 mmHg 76%
03:00 +17°C° 0.1 mm 3 mps 753 mmHg 77%
04:00 +17°C° 0.2 mm 3 mps 753 mmHg 78%
05:00 +17°C° 0.2 mm 3 mps 753 mmHg 79%
06:00 +16°C° 0.2 mm 3 mps 753 mmHg 80%
07:00 +17°C° 0.1 mm 3 mps 753 mmHg 78%
08:00 +17°C° 0.1 mm 3 mps 753 mmHg 75%
09:00 +18°C° 0.1 mm 3 mps 753 mmHg 73%
10:00 +19°C° 0.3 mm 2 mps 753 mmHg 70%
11:00 +19°C° 0.3 mm 2 mps 753 mmHg 67%
12:00 +20°C° 0.3 mm 2 mps 753 mmHg 64%
13:00 +21°C° 0.1 mm 2 mps 753 mmHg 63%
14:00 +22°C° 0.1 mm 1 mps 753 mmHg 61%
15:00 +23°C° 0.1 mm 1 mps 753 mmHg 60%
16:00 +21°C° 0.1 mm 2 mps 753 mmHg 65%
17:00 +19°C° 0.1 mm 2 mps 753 mmHg 70%
18:00 +18°C° 0.1 mm 3 mps 753 mmHg 75%
19:00 +18°C° 0.1 mm 2 mps 753 mmHg 79%
20:00 +17°C° 0.1 mm 2 mps 754 mmHg 82%
21:00 +16°C° 0.1 mm 1 mps 754 mmHg 85%
22:00 +16°C° 0 mm 1 mps 754 mmHg 86%
23:00 +16°C° 0 mm 1 mps 754 mmHg 88%

Tomorrow, 2 October, Friday

Time Temperature Precipitation Wind Pressure Humidity
00:00 +15°C° 0 mm 1 mps 754 mmHg 89%
01:00 +14°C° 0 mm 0 mps 755 mmHg 89%
02:00 +14°C° 0 mm 0 mps 755 mmHg 89%
03:00 +14°C° 0 mm 0 mps 755 mmHg 89%
04:00 +14°C° 0 mm 0 mps 755 mmHg 89%
05:00 +14°C° 0 mm 0 mps 755 mmHg 89%
06:00 +13°C° 0 mm 0 mps 756 mmHg 89%
07:00 +15°C° 0 mm 0 mps 756 mmHg 83%
08:00 +18°C° 0 mm 1 mps 756 mmHg 77%
09:00 +20°C° 0 mm 1 mps 756 mmHg 71%
10:00 +21°C° 0.2 mm 1 mps 756 mmHg 67%
11:00 +23°C° 0.2 mm 1 mps 756 mmHg 62%
12:00 +24°C° 0.2 mm 1 mps 757 mmHg 57%
13:00 +24°C° 0.1 mm 1 mps 757 mmHg 55%
14:00 +25°C° 0.1 mm 1 mps 757 mmHg 53%
15:00 +25°C° 0.1 mm 1 mps 757 mmHg 51%
16:00 +24°C° 0.1 mm 2 mps 757 mmHg 56%
17:00 +23°C° 0.1 mm 2 mps 757 mmHg 62%
18:00 +21°C° 0.1 mm 3 mps 757 mmHg 67%
19:00 +20°C° 0 mm 3 mps 758 mmHg 70%
20:00 +19°C° 0 mm 3 mps 758 mmHg 73%
21:00 +18°C° 0 mm 3 mps 758 mmHg 77%
22:00 +17°C° 0 mm 2 mps 758 mmHg 79%
23:00 +17°C° 0 mm 2 mps 759 mmHg 82%

Day after tomorrow, 3 October, Saturday

Time Temperature Precipitation Wind Pressure Humidity
00:00 +16°C° 0 mm 2 mps 759 mmHg 84%
01:00 +16°C° 0 mm 2 mps 759 mmHg 86%
02:00 +15°C° 0 mm 2 mps 759 mmHg 89%
03:00 +15°C° 0 mm 2 mps 759 mmHg 91%
04:00 +15°C° 0.1 mm 2 mps 759 mmHg 90%
05:00 +15°C° 0.1 mm 2 mps 759 mmHg 90%
06:00 +15°C° 0.1 mm 2 mps 759 mmHg 89%
07:00 +17°C° 0.1 mm 2 mps 759 mmHg 83%
08:00 +18°C° 0.1 mm 2 mps 760 mmHg 76%
09:00 +19°C° 0.1 mm 2 mps 760 mmHg 70%
10:00 +21°C° 0 mm 2 mps 760 mmHg 61%
11:00 +24°C° 0 mm 2 mps 760 mmHg 53%
12:00 +27°C° 0 mm 2 mps 760 mmHg 44%
13:00 +27°C° 0 mm 2 mps 759 mmHg 42%
14:00 +28°C° 0 mm 2 mps 759 mmHg 39%
15:00 +28°C° 0 mm 2 mps 759 mmHg 37%
16:00 +27°C° 0 mm 2 mps 759 mmHg 40%
17:00 +25°C° 0 mm 2 mps 759 mmHg 44%
18:00 +24°C° 0 mm 2 mps 759 mmHg 47%
19:00 +23°C° 0 mm 2 mps 759 mmHg 51%
20:00 +21°C° 0 mm 2 mps 760 mmHg 55%
21:00 +20°C° 0 mm 2 mps 760 mmHg 59%
22:00 +19°C° 0 mm 2 mps 760 mmHg 62%
23:00 +18°C° 0 mm 2 mps 760 mmHg 66%

4 October, Sunday

Time Temperature Precipitation Wind Pressure Humidity
00:00 +17°C° 0 mm 2 mps 760 mmHg 69%
01:00 +17°C° 0 mm 2 mps 760 mmHg 71%
02:00 +16°C° 0 mm 2 mps 760 mmHg 73%
03:00 +16°C° 0 mm 2 mps 760 mmHg 75%
04:00 +16°C° 0 mm 2 mps 760 mmHg 76%
05:00 +15°C° 0 mm 2 mps 760 mmHg 78%
06:00 +15°C° 0 mm 1 mps 760 mmHg 80%
07:00 +18°C° 0 mm 1 mps 760 mmHg 72%
08:00 +19°C° 0 mm 2 mps 760 mmHg 65%
09:00 +20°C° 0 mm 2 mps 760 mmHg 57%
10:00 +24°C° 0 mm 2 mps 760 mmHg 50%
11:00 +26°C° 0 mm 2 mps 760 mmHg 44%
12:00 +28°C° 0 mm 1 mps 760 mmHg 37%
13:00 +28°C° 0 mm 1 mps 760 mmHg 34%
14:00 +29°C° 0 mm 1 mps 760 mmHg 32%
15:00 +29°C° 0 mm 1 mps 760 mmHg 30%
16:00 +28°C° 0 mm 1 mps 760 mmHg 34%
17:00 +26°C° 0 mm 1 mps 759 mmHg 38%
18:00 +24°C° 0 mm 2 mps 759 mmHg 42%
19:00 +23°C° 0 mm 2 mps 759 mmHg 45%
20:00 +21°C° 0 mm 2 mps 760 mmHg 48%
21:00 +20°C° 0 mm 2 mps 760 mmHg 51%
22:00 +19°C° 0 mm 2 mps 760 mmHg 54%
23:00 +20°C° 0 mm 1 mps 760 mmHg 58%

5 October, Monday

Time Temperature Precipitation Wind Pressure Humidity
00:00 +19°C° 0 mm 1 mps 760 mmHg 62%
01:00 +19°C° 0 mm 1 mps 760 mmHg 65%
02:00 +18°C° 0 mm 1 mps 759 mmHg 67%
03:00 +18°C° 0 mm 1 mps 759 mmHg 70%
04:00 +16°C° 0 mm 1 mps 760 mmHg 71%
05:00 +16°C° 0 mm 1 mps 760 mmHg 73%
06:00 +16°C° 0 mm 1 mps 760 mmHg 75%
07:00 +18°C° 0 mm 2 mps 760 mmHg 67%
08:00 +19°C° 0 mm 2 mps 760 mmHg 60%
09:00 +21°C° 0 mm 2 mps 760 mmHg 53%
10:00 +24°C° 0 mm 2 mps 760 mmHg 46%
11:00 +26°C° 0 mm 3 mps 760 mmHg 40%
12:00 +29°C° 0 mm 3 mps 760 mmHg 34%
13:00 +29°C° 0 mm 3 mps 760 mmHg 32%
14:00 +30°C° 0 mm 4 mps 759 mmHg 29%
15:00 +30°C° 0 mm 4 mps 759 mmHg 27%
16:00 +29°C° 0 mm 4 mps 759 mmHg 31%
17:00 +27°C° 0 mm 4 mps 759 mmHg 35%
18:00 +25°C° 0 mm 4 mps 759 mmHg 39%
19:00 +23°C° 0 mm 4 mps 759 mmHg 42%
20:00 +22°C° 0 mm 4 mps 759 mmHg 45%
21:00 +21°C° 0 mm 5 mps 759 mmHg 49%
22:00 +20°C° 0 mm 4 mps 759 mmHg 52%
23:00 +20°C° 0 mm 4 mps 759 mmHg 55%

6 October, Tuesday

Time Temperature Precipitation Wind Pressure Humidity
00:00 +19°C° 0 mm 4 mps 759 mmHg 59%
01:00 +18°C° 0 mm 4 mps 759 mmHg 60%
02:00 +18°C° 0 mm 3 mps 759 mmHg 61%
03:00 +17°C° 0 mm 3 mps 759 mmHg 62%
04:00 +17°C° 0 mm 3 mps 759 mmHg 62%
05:00 +17°C° 0 mm 4 mps 759 mmHg 63%
06:00 +15°C° 0 mm 4 mps 759 mmHg 64%
07:00 +18°C° 0 mm 4 mps 759 mmHg 61%
08:00 +19°C° 0 mm 5 mps 759 mmHg 58%
09:00 +20°C° 0 mm 5 mps 759 mmHg 55%
10:00 +22°C° 0 mm 5 mps 759 mmHg 50%
11:00 +25°C° 0 mm 5 mps 759 mmHg 45%
12:00 +28°C° 0 mm 5 mps 758 mmHg 40%
13:00 +28°C° 0 mm 6 mps 758 mmHg 39%
14:00 +29°C° 0 mm 6 mps 758 mmHg 37%
15:00 +29°C° 0 mm 6 mps 757 mmHg 36%
16:00 +28°C° 0 mm 6 mps 757 mmHg 39%
17:00 +26°C° 0 mm 6 mps 757 mmHg 43%
18:00 +25°C° 0 mm 5 mps 757 mmHg 46%
19:00 +23°C° 0 mm 5 mps 757 mmHg 49%
20:00 +22°C° 0 mm 5 mps 757 mmHg 51%
21:00 +21°C° 0 mm 5 mps 757 mmHg 53%
22:00 +20°C° 0 mm 5 mps 757 mmHg 55%
23:00 +19°C° 0 mm 4 mps 757 mmHg 57%
Show more

We Need Your Consent

Meteoprog and our Service Providers may store and access personal data such as cookies, device identifiers or other similar technologies on your device and process such data to personalise content and ads, as well as provide social media features and to analyse the traffic.

  • Store and/or access information on your device

    Cookies, device identifiers or other information can be stored or accessed on your device for the purposes indicated above.

  • Personalised ads and content, ad and content measurement, audience insights, and products development

    Ads and content can be personalised based on a profile. More data can be added to better personalise ads and content. Ad and content performance can be measured. Insights about the audience who saw the ads and content can be derived. Such data can be used to develop or improve user’s experience, systems and software.

By clicking ‘I Agree’ you will allow the use of indicated cookies, device identifiers, web beacons or other similar technologies. Your settings can be changed in the browser on your device.

For certain purposes, legitimate interests may be relied on, rather than consent. You can read more about this in our Privacy and Cookie Policy.